Peru, IL

1:00 PM CDT on August 17, 2017 (GMT -0500)
Illinois Valley Regional-Duncan

Weather History for KVYS - November, 2013

Change the Weather History Date:

Saturday, November 2, 2013

  Actual Average Record
Temperature  
Mean Temperature 42 °F -  
Max Temperature 50 °F 58 °F 75 °F (2008)
Min Temperature 35 °F 39 °F 22 °F (1991)
Degree Days  
Heating Degree Days 22    
Moisture  
Dew Point 37 °F    
Average Humidity 81    
Maximum Humidity 97    
Minimum Humidity 56    
Precipitation  
Precipitation 0.00 in - - ()
Sea Level Pressure  
Sea Level Pressure 29.97 in    
Wind  
Wind Speed 9 mph (NW)    
Max Wind Speed 20 mph    
Max Gust Speed 23 mph    
Visibility 9 miles    
Events      
Averages and records for this station are not official NWS values.
T = Trace of Precipitation, MM = Missing Value Source: NWS Daily Summary

Daily Weather History Graph

Daily Weather History Graph

Search for Another Location

Airport or City:

Trip Planner

Search our weather history database for the weather conditions in past years. The results will help you decide how hot, cold, wet, or windy it might be!

Date:

Astronomy

Nov. 02, 2013 Rise Set
Actual Time 7:29 AM CDT 5:50 PM CDT
Civil Twilight 7:00 AM CDT 6:18 PM CDT
Nautical Twilight 6:28 AM CDT 6:51 PM CDT
Astronomical Twilight 5:55 AM CDT 7:23 PM CDT
Moon 6:26 AM CDT (11/2) 5:21 PM CDT (11/2)
Length of Visible Light 11h 18m
Length of Day
10h 20m
Waning Crescent, 1% of the Moon is Illuminated
Nov 2
Waning Crescent
Nov 3
New
Nov 9
First Quarter
Nov 17
Full
Nov 25
Last Quarter

Hourly Weather History & Observations

Time (CDT) Temp. Windchill Dew Point Humidity Pressure Visibility Wind Dir Wind Speed Gust Speed Precip Events Conditions
12:15 AM 43.3 °F 39.2 °F 41.2 °F 92% 29.77 in 7.0 mi WSW 6.9 mph - N/A   Mostly Cloudy
12:35 AM 43.0 °F 37.7 °F 41.0 °F 93% 29.77 in 10.0 mi West 9.2 mph - N/A   Scattered Clouds
12:55 AM 42.3 °F 37.3 °F 40.1 °F 92% 29.78 in 10.0 mi West 8.1 mph - N/A   Scattered Clouds
1:15 AM 41.4 °F 36.8 °F 39.4 °F 93% 29.78 in 7.0 mi West 6.9 mph - N/A   Clear
1:35 AM 41.0 °F 35.2 °F 39.2 °F 93% 29.79 in 7.0 mi West 9.2 mph - N/A   Clear
1:55 AM 41.4 °F 36.8 °F 39.6 °F 93% 29.79 in 10.0 mi WNW 6.9 mph - N/A   Clear
2:15 AM 41.4 °F 36.2 °F 39.4 °F 93% 29.79 in 10.0 mi WNW 8.1 mph - N/A   Clear
2:35 AM 41.0 °F 35.8 °F 38.8 °F 92% 29.80 in 7.0 mi WNW 8.1 mph - N/A   Clear
2:55 AM 40.1 °F 34.7 °F 38.3 °F 93% 29.80 in 7.0 mi WNW 8.1 mph - N/A   Clear
3:15 AM 39.7 °F 34.3 °F 37.9 °F 93% 29.80 in 7.0 mi WNW 8.1 mph - N/A   Clear
3:35 AM 39.7 °F 34.3 °F 38.1 °F 94% 29.80 in 7.0 mi WNW 8.1 mph - N/A   Mostly Cloudy
3:55 AM 39.6 °F 34.0 °F 37.8 °F 93% 29.81 in 7.0 mi WNW 8.1 mph - N/A   Mostly Cloudy
4:15 AM 39.6 °F 34.7 °F 37.8 °F 93% 29.81 in 7.0 mi NW 6.9 mph - N/A   Scattered Clouds
4:35 AM 38.3 °F 33.9 °F 36.5 °F 93% 29.82 in 7.0 mi WNW 5.8 mph - N/A   Clear
4:55 AM 38.3 °F 33.2 °F 36.9 °F 95% 29.83 in 7.0 mi WNW 6.9 mph - N/A   Clear
5:15 AM 37.6 °F 32.3 °F 36.1 °F 95% 29.83 in 5.0 mi NW 6.9 mph - N/A   Clear
5:35 AM 36.9 °F 30.7 °F 35.6 °F 95% 29.84 in 5.0 mi NW 8.1 mph - N/A   Scattered Clouds
5:55 AM 36.9 °F 31.4 °F 35.8 °F 96% 29.85 in 5.0 mi NW 6.9 mph - N/A   Scattered Clouds
6:15 AM 36.3 °F 30.8 °F 35.1 °F 95% 29.86 in 5.0 mi NW 6.9 mph - N/A   Scattered Clouds
6:35 AM 36.1 °F 31.4 °F 35.1 °F 96% 29.87 in 5.0 mi NW 5.8 mph - N/A   Scattered Clouds
6:55 AM 35.6 °F 29.9 °F 34.7 °F 97% 29.88 in 5.0 mi NW 6.9 mph - N/A   Clear
7:15 AM 35.6 °F 29.2 °F 34.7 °F 97% 29.88 in 7.0 mi NW 8.1 mph - N/A   Clear
7:35 AM 36.1 °F 29.3 °F 34.9 °F 95% 29.89 in 7.0 mi NW 9.2 mph - N/A   Scattered Clouds
7:55 AM 37.4 °F 30.8 °F 36.0 °F 95% 29.90 in 7.0 mi NW 9.2 mph - N/A   Overcast
8:15 AM 37.8 °F 31.8 °F 35.8 °F 93% 29.91 in 7.0 mi NW 8.1 mph - N/A   Overcast
8:35 AM 39.2 °F 33.0 °F 37.0 °F 92% 29.92 in 7.0 mi NW 9.2 mph - N/A   Overcast
8:55 AM 39.6 °F 33.0 °F 36.9 °F 90% 29.92 in 10.0 mi NW 10.4 mph - N/A   Overcast
9:15 AM 40.1 °F 32.7 °F 36.9 °F 88% 29.93 in 10.0 mi NW 12.7 mph - N/A   Overcast
9:35 AM 40.8 °F 34.1 °F 37.6 °F 88% 29.94 in 10.0 mi NW 11.5 mph - N/A   Overcast
9:55 AM 41.4 °F 34.3 °F 37.8 °F 87% 29.95 in 10.0 mi NW 12.7 mph - N/A   Overcast
10:15 AM 42.1 °F 35.7 °F 37.9 °F 85% 29.96 in 10.0 mi NW 11.5 mph - N/A   Overcast
10:35 AM 42.3 °F 34.8 °F 37.6 °F 83% 29.97 in 10.0 mi NW 15.0 mph - N/A   Overcast
10:55 AM 42.6 °F 34.9 °F 37.9 °F 83% 29.98 in 10.0 mi NW 16.1 mph - N/A   Overcast
12:15 PM 45.9 °F 39.7 °F 39.7 °F 79% 30.00 in 10.0 mi NNW 13.8 mph 17.3 mph N/A   Overcast
12:35 PM 46.6 °F - 38.1 °F 72% 30.00 in 10.0 mi NW 15.0 mph - N/A   Mostly Cloudy
12:55 PM 47.5 °F - 37.6 °F 69% 30.00 in 10.0 mi NW 16.1 mph - N/A   Scattered Clouds
1:15 PM 47.7 °F - 37.6 °F 68% 30.00 in 10.0 mi NW 16.1 mph 23.0 mph N/A   Mostly Cloudy
1:35 PM 48.9 °F - 37.9 °F 66% 30.00 in 10.0 mi NW 16.1 mph 20.7 mph N/A   Overcast
1:55 PM 47.7 °F - 37.0 °F 67% 30.00 in 10.0 mi NNW 13.8 mph 18.4 mph N/A   Overcast
2:15 PM 49.1 °F - 37.2 °F 64% 30.00 in 10.0 mi NNW 12.7 mph 18.4 mph N/A   Overcast
2:35 PM 50.2 °F - 36.3 °F 59% 30.01 in 10.0 mi NW 19.6 mph - N/A   Overcast
2:55 PM 49.8 °F - 36.1 °F 59% 30.02 in 10.0 mi NW 17.3 mph 21.9 mph N/A   Mostly Cloudy
3:15 PM 49.6 °F - 34.7 °F 56% 30.03 in 10.0 mi NW 18.4 mph - N/A   Overcast
3:35 PM 48.9 °F - 35.6 °F 60% 30.03 in 10.0 mi NW 12.7 mph - N/A   Overcast
3:55 PM 48.9 °F - 34.7 °F 58% 30.04 in 10.0 mi NW 12.7 mph - N/A   Overcast
4:15 PM 48.4 °F - 36.0 °F 62% 30.04 in 10.0 mi NW 11.5 mph - N/A   Overcast
4:35 PM 48.2 °F - 35.6 °F 62% 30.05 in 10.0 mi NW 10.4 mph - N/A   Overcast
4:55 PM 47.8 °F - 35.6 °F 63% 30.05 in 10.0 mi NNW 6.9 mph - N/A   Overcast
5:15 PM 47.8 °F - 35.8 °F 63% 30.05 in 10.0 mi NNW 6.9 mph - N/A   Overcast
5:35 PM 46.8 °F - 37.0 °F 69% 30.06 in 10.0 mi NW 4.6 mph - N/A   Overcast
5:55 PM 46.4 °F 42.9 °F 36.7 °F 69% 30.07 in 10.0 mi NW 6.9 mph - N/A   Overcast
6:15 PM 46.4 °F 42.4 °F 37.2 °F 70% 30.08 in 10.0 mi NW 8.1 mph - N/A   Overcast
6:35 PM 44.8 °F 41.0 °F 36.5 °F 73% 30.08 in 10.0 mi WNW 6.9 mph - N/A   Mostly Cloudy
6:55 PM 44.6 °F 40.7 °F 36.0 °F 72% 30.09 in 10.0 mi WNW 6.9 mph - N/A   Mostly Cloudy
7:15 PM 45.0 °F 41.8 °F 35.6 °F 70% 30.10 in 10.0 mi WNW 5.8 mph - N/A   Overcast
7:35 PM 45.0 °F 41.2 °F 35.6 °F 70% 30.10 in 10.0 mi WNW 6.9 mph - N/A   Overcast
7:55 PM 43.5 °F 38.3 °F 35.1 °F 72% 30.10 in 10.0 mi NW 9.2 mph - N/A   Mostly Cloudy
8:15 PM 42.1 °F 37.1 °F 35.2 °F 77% 30.11 in 10.0 mi NW 8.1 mph - N/A   Scattered Clouds
8:35 PM 41.0 °F 35.8 °F 35.1 °F 79% 30.12 in 10.0 mi NW 8.1 mph - N/A   Mostly Cloudy
8:55 PM 42.1 °F 37.1 °F 35.4 °F 77% 30.12 in 10.0 mi WNW 8.1 mph - N/A   Overcast
9:15 PM 41.4 °F 35.7 °F 35.1 °F 78% 30.13 in 10.0 mi NW 9.2 mph - N/A   Overcast
9:35 PM 40.3 °F 34.9 °F 34.9 °F 81% 30.14 in 10.0 mi NW 8.1 mph - N/A   Mostly Cloudy
9:55 PM 39.6 °F 34.7 °F 35.1 °F 84% 30.14 in 10.0 mi NNW 6.9 mph - N/A   Scattered Clouds
10:15 PM 39.6 °F 35.4 °F 34.9 °F 83% 30.15 in 10.0 mi NNW 5.8 mph - N/A   Clear
10:35 PM 38.8 °F 34.6 °F 34.3 °F 84% 30.15 in 10.0 mi NNW 5.8 mph - N/A   Clear
10:55 PM 39.4 °F 33.8 °F 34.7 °F 83% 30.15 in 10.0 mi North 8.1 mph - N/A   Clear
11:15 PM 38.8 °F 34.6 °F 33.6 °F 82% 30.15 in 10.0 mi NNW 5.8 mph - N/A   Clear
11:35 PM 38.3 °F 34.8 °F 33.4 °F 83% 30.15 in 10.0 mi NNW 4.6 mph - N/A   Clear
11:55 PM 36.9 °F 32.2 °F 32.9 °F 86% 30.15 in 10.0 mi North 5.8 mph - N/A   Clear